Concord, NH

10:02 PM EDT on July 25, 2017 (GMT -0400)
Concord Municipal

Weather History for KCON - November, 2012

Change the Weather History Date:

Tuesday, November 6, 2012

  Actual Average Record
Temperature  
Mean Temperature 29 °F 42 °F  
Max Temperature 41 °F 52 °F 75 °F (1948)
Min Temperature 17 °F 31 °F 9 °F (1879)
Degree Days  
Heating Degree Days 36 23  
Month to date heating degree days 146 136  
Since 1 July heating degree days 752 895  
Cooling Degree Days 0 0  
Month to date cooling degree days 0 0  
Year to date cooling degree days 569 452  
Moisture  
Dew Point 15 °F    
Average Humidity 61    
Maximum Humidity 92    
Minimum Humidity 30    
Precipitation  
Precipitation 0.00 in 0.12 in 1.73 in (1907)
Month to date precipitation T 0.78  
Year to date precipitation 34.49 34.47  
Snow  
Snow 0.00 in 0.10 in 3.00 in (1879)
Month to date snowfall T 0.2  
Since 1 July snowfall T 0.2  
Since 1 September snowfall T 0.2  
Snow Depth 0.00 in    
Sea Level Pressure  
Sea Level Pressure 30.21 in    
Wind  
Wind Speed 2 mph (NW)    
Max Wind Speed 13 mph    
Max Gust Speed 16 mph    
Visibility 10 miles    
Events      
T = Trace of Precipitation, MM = Missing Value Source: NWS Daily Summary

Daily Weather History Graph

Daily Weather History Graph

Search for Another Location

Airport or City:

Trip Planner

Search our weather history database for the weather conditions in past years. The results will help you decide how hot, cold, wet, or windy it might be!

Date:

Astronomy

Nov. 06, 2012 Rise Set
Actual Time 6:27 AM EST 4:30 PM EST
Civil Twilight 5:57 AM EST 5:00 PM EST
Nautical Twilight 5:23 AM EST 5:34 PM EST
Astronomical Twilight 4:50 AM EST 6:08 PM EST
Moon 11:08 PM EST (11/6) 12:17 PM EST (11/6)
Length of Visible Light 11h 02m
Length of Day
10h 02m
Waning Gibbous, 53% of the Moon is Illuminated
Nov 6
Waning Gibbous
Nov 6
Last Quarter
Nov 13
New
Nov 20
First Quarter
Nov 28
Full

Hourly Weather History & Observations

Time (EST) Temp. Windchill Dew Point Humidity Pressure Visibility Wind Dir Wind Speed Gust Speed Precip Events Conditions
12:51 AM 23.0 °F - 17.1 °F 78% 30.14 in 10.0 mi Calm Calm - N/A   Clear
1:51 AM 21.0 °F - 18.0 °F 88% 30.16 in 10.0 mi Calm Calm - N/A   Clear
2:51 AM 19.9 °F - 17.1 °F 89% 30.16 in 10.0 mi Calm Calm - N/A   Clear
3:51 AM 18.0 °F - 15.1 °F 88% 30.17 in 10.0 mi Calm Calm - N/A   Clear
4:51 AM 18.0 °F - 16.0 °F 92% 30.17 in 10.0 mi Calm Calm - N/A   Clear
5:51 AM 17.1 °F - 15.1 °F 92% 30.18 in 10.0 mi Calm Calm - N/A   Clear
6:51 AM 17.1 °F - 15.1 °F 92% 30.20 in 10.0 mi Calm Calm - N/A   Clear
7:51 AM 27.0 °F - 21.0 °F 78% 30.21 in 10.0 mi Calm Calm - N/A   Clear
8:51 AM 30.9 °F 24.3 °F 19.0 °F 61% 30.23 in 10.0 mi NW 6.9 mph - N/A   Clear
9:51 AM 35.1 °F 28.6 °F 16.0 °F 46% 30.24 in 10.0 mi NW 8.1 mph - N/A   Clear
10:51 AM 37.0 °F 31.6 °F 12.0 °F 36% 30.24 in 10.0 mi NNW 6.9 mph - N/A   Clear
11:51 AM 39.0 °F 32.8 °F 10.9 °F 32% 30.21 in 10.0 mi NW 9.2 mph - N/A   Clear
12:51 PM 39.9 °F 33.9 °F 10.9 °F 31% 30.21 in 10.0 mi WNW 9.2 mph - N/A   Clear
1:51 PM 39.9 °F 37.8 °F 10.0 °F 29% 30.20 in 10.0 mi Variable 3.5 mph - N/A   Clear
2:51 PM 39.9 °F 35.8 °F 10.9 °F 31% 30.20 in 10.0 mi NNW 5.8 mph - N/A   Clear
3:51 PM 39.0 °F 36.8 °F 10.9 °F 32% 30.20 in 10.0 mi NNE 3.5 mph - N/A   Clear
4:51 PM 34.0 °F - 12.9 °F 42% 30.21 in 10.0 mi Calm Calm - N/A   Clear
5:51 PM 27.0 °F - 12.9 °F 56% 30.22 in 10.0 mi Calm Calm - N/A   Clear
6:51 PM 27.0 °F - 14.0 °F 58% 30.23 in 10.0 mi Calm Calm - N/A   Clear
7:51 PM 24.1 °F - 17.1 °F 75% 30.24 in 10.0 mi Calm Calm - N/A   Clear
8:51 PM 21.9 °F - 17.1 °F 82% 30.24 in 10.0 mi Calm Calm - N/A   Clear
9:51 PM 21.0 °F - 16.0 °F 81% 30.24 in 10.0 mi Calm Calm - N/A   Clear
10:51 PM 19.9 °F - 18.0 °F 92% 30.23 in 10.0 mi Calm Calm - N/A   Clear
11:51 PM 19.0 °F - 16.0 °F 88% 30.21 in 10.0 mi Calm Calm - N/A   Clear